Weather History for Klamath Falls, OR

Change the Weather History Date:

Friday, May 23, 2014

  Actual Average Record
Temperature  
Mean Temperature 61 °F 52 °F  
Max Temperature 76 °F 67 °F 88 °F (2001)
Min Temperature 45 °F 38 °F 22 °F (2010)
Degree Days  
Heating Degree Days 4 13  
Month to date heating degree days 279 345  
Since 1 July heating degree days 6366 6664  
Cooling Degree Days 0 0  
Month to date cooling degree days 0 0  
Year to date cooling degree days 0 0  
Growing Degree Days 10 (Base 50)    
Moisture  
Dew Point 43 °F    
Average Humidity 59    
Maximum Humidity 82    
Minimum Humidity 33    
Precipitation  
Precipitation T in 0.03 in 0.63 in (1990)
Month to date precipitation 1.25 1.24  
Year to date precipitation 6.04 7.65  
Sea Level Pressure  
Sea Level Pressure 30.03 in    
Wind  
Wind Speed 8 mph (NW)    
Max Wind Speed 24 mph    
Max Gust Speed 27 mph    
Visibility 10 miles    
Events Rain    
T = Trace of Precipitation, MM = Missing Value Source: NWS Daily Summary

Daily Weather History Graph

Daily Weather History Graph

Search for Another Location

Airport:

Trip Planner

Search our weather history database for the weather conditions in past years. The results will help you decide how hot, cold, wet, or windy it might be!

Date:

Astronomy

May. 23, 2014 Rise Set
Actual Time 5:38 AM PDT 8:28 PM PDT
Civil Twilight 5:05 AM PDT 9:01 PM PDT
Nautical Twilight 4:24 AM PDT 9:43 PM PDT
Astronomical Twilight 3:36 AM PDT 10:31 PM PDT
Moon 2:42 AM PDT (5/23) 3:22 PM PDT (5/23)
Length of Visible Light 15h 56m
Length of Day
14h 50m
Waning Crescent, 26% of the Moon is Illuminated
May 23
Waning Crescent
May 28
New
Jun 5
First Quarter
Jun 12
Full
Jun 19
Last Quarter

Hourly Weather History & Observations

Time (PDT) Temp. Dew Point Humidity Pressure Visibility Wind Dir Wind Speed Gust Speed Precip Events Conditions
12:53 AM 46.9 °F 41.0 °F 80% 30.11 in 10.0 mi Calm Calm - N/A   Clear
1:53 AM 48.0 °F 39.0 °F 71% 30.00 in 10.0 mi NNE 4.6 mph - N/A   Clear
2:53 AM 46.9 °F 41.0 °F 80% 30.02 in 10.0 mi SSE 8.1 mph - N/A   Clear
3:53 AM 46.0 °F 41.0 °F 83% 30.02 in 10.0 mi Calm Calm - N/A   Clear
4:53 AM 48.0 °F 42.1 °F 80% 30.01 in 10.0 mi Calm Calm - N/A   Clear
5:53 AM 48.0 °F 43.0 °F 83% 30.02 in 10.0 mi NNW 3.5 mph - N/A   Clear
6:53 AM 51.1 °F 45.0 °F 80% 30.02 in 10.0 mi Calm Calm - N/A   Clear
8:53 AM 60.1 °F 48.0 °F 64% 30.04 in 10.0 mi Variable 3.5 mph - N/A   Clear
9:53 AM 64.9 °F 48.0 °F 54% 30.03 in 10.0 mi SSE 3.5 mph - N/A   Clear
10:53 AM 69.1 °F 48.0 °F 47% 30.02 in 10.0 mi Variable 5.8 mph - N/A   Clear
11:53 AM 73.9 °F 45.0 °F 35% 30.00 in 10.0 mi WSW 11.5 mph - N/A   Clear
12:53 PM 73.9 °F 43.0 °F 33% 30.00 in 10.0 mi West 11.5 mph - N/A   Clear
1:53 PM 71.1 °F 44.1 °F 38% 30.00 in 10.0 mi West 19.6 mph - N/A   Clear
2:53 PM 69.1 °F 42.1 °F 38% 30.03 in 10.0 mi WNW 21.9 mph 26.5 mph N/A   Mostly Cloudy
3:53 PM 66.0 °F 46.0 °F 48% 30.03 in 10.0 mi NNW 15.0 mph - 0.00 in Rain Light Rain
4:53 PM 66.0 °F 45.0 °F 47% 30.03 in 10.0 mi NW 13.8 mph - 0.00 in   Overcast
5:53 PM 64.9 °F 44.1 °F 47% 30.04 in 10.0 mi NNW 18.4 mph - N/A   Overcast
6:53 PM 64.9 °F 41.0 °F 42% 30.03 in 10.0 mi NNW 16.1 mph - N/A   Overcast
7:53 PM 64.0 °F 41.0 °F 43% 30.03 in 10.0 mi NNW 13.8 mph - N/A   Mostly Cloudy
8:53 PM 60.1 °F 43.0 °F 53% 30.04 in 10.0 mi NW 11.5 mph - N/A   Partly Cloudy
10:53 PM 48.9 °F 43.0 °F 80% 30.06 in 10.0 mi Calm Calm - N/A   Clear
11:53 PM 48.9 °F 43.0 °F 80% 30.05 in 10.0 mi SE 4.6 mph - N/A   Clear